カタログに戻る

ARIANE 5 DEB

SYLDA

LostUNKNOWN
NORAD 44478·DEBRIS·🇫🇷 France

打ち上げ Aug 6, 2019 から Guiana Space Centre

Loading…

次のパス (今後24時間)

TLE

古いSource: Space-Track

元期: Jun 23, 2026, 21:12 UTC

1 44478U 19049D   26174.88386675  .00577358  13045-4  41641-2 0  9991
2 44478   4.3311  27.8720 1850456 250.4265  88.7432 11.92896958126975

AllMySatでARIANE 5 DEBをリアルタイム追跡

Download on the App Store